星链-36865(STARLINK-36865)

导读 | 豆包AI

STARLINK-36865是美国太空探索技术公司Starlink卫星互联网星座的一员,于2026年2月22日发射入轨。该卫星是Starlink低轨卫星组网计划的组成部分,旨在为全球提供高速低延迟宽带互联网覆盖,进一步完善星链星座的服务覆盖范围与网络容量。

Basic Information
目录编号:
67930
目录名称:
STARLINK-36865
国际标识:
2026-036AC
轨道中心:
EARTH
卫星名称:
星链-36865
卫星全名:
星链-36865(STARLINK-36865)
卫星状态:
在轨 (已飞行92 天)
发射日期:
2026-02-22 UTC
国别 :
美国 (US)
星等 :
--
Orbit Information
数据来源 国际轨道数据 AOE轨道数据
星历时间 2026-05-25T10:44:47+0800
5小时前
查看轨道信息
2026-05-24T02:00:00+0800
1天前
查看轨道信息
半长轴 6861.177km 6861.176km
偏心率 0.0001177 0.0001116
轨道倾角 43.000° 42.998°
近地点辐角 263.906° 240.964°
升交点赤经 173.352° 181.057°
平近点角 96.166° 166.862°
近地点 482.232km 482.273km
远地点 483.848km 483.805km
周期 94.267分钟 94.267分钟
每日圈数 15.275832 15.275836
Detailed Information
固有亮度:
5
最大亮度:
2.5
卫星平台:
Starlink V1.0
覆盖范围:
全球
运营商:
太空探索技术公司
运营商所在国:
美国
制造商(研发单位):
太空探索技术公司
制造商所在国:
美国
使用方式:
暂无
Satellite Introduction
Starlink 计划是 SpaceX 推出的全球卫星互联网项目,通过发射低轨道卫星,为全球尤其是偏远地区提供高速、低延迟的互联网服务。自 2019 年起,Starlink 已部署数千颗卫星,旨在缩小全球数字鸿沟,推动互联网普及。该项目还为军事、航空等行业提供通信支持,带来广泛经济效益。
2D Orbit Map
3D Orbit Map
Orbit Altitude Analysis Chart
Orbit Inclination Analysis Chart
Orbit Comprehensive Analysis Chart
View Comprehensive Chart